Location: Ehingen
(48.2869°N, 9.7112°E)
Time: 19:47:33
(UTC+02:00)

Envisat - Visible Passes

Search period start: 20 May 2018 00:00
Search period end: 30 May 2018 00:00
Orbit: 764 x 766 km, 98.2° (Epoch: 20 May)

Date Brightness Start Highest point End Pass type
(mag) Time Alt. Az. Time Alt. Az. Time Alt. Az.
20 May 5.0 21:32:21 10° SSW 21:36:40 28° W 21:41:01 10° NW visible
22 May 5.6 21:59:17 10° SW 22:02:32 17° W 22:05:47 10° NW visible
25 May 5.5 21:47:28 10° SW 21:51:15 21° W 21:55:03 10° NW visible
27 May 5.8 22:15:06 10° WSW 22:17:10 12° W 22:19:14 10° WNW visible
